National Weather Service United States Department of Commerce

Latest Hourly Weather Roundup

TOPSWRTT 000
TTAA00 KICT 281312

Wichita AWIPS Roundup
National Weather Service Wichita KS
800 AM CDT THU OCT 28 2021

....Central Kansas....
  
CITY           SKY/WX    TMP DP  RH WIND       PRES   REMARKS
RUSSELL        CLEAR     45  32  60 NW21      29.82R WCI  37          
SALINA         MOCLDY    48  39  71 NW21G33   29.74R                  
GREAT BEND     CLEAR     47  33  58 NW26G36   29.82S                  
ELLSWORTH      CLEAR     46  36  66 NW15G23   29.79R                  
LYONS          FAIR      46  36  68 NW21G29   29.77R                  
MCPHERSON      CLEAR     48  39  71 NW28G33   29.72S                  
HAYS           CLEAR     47  30  51 NW21G32   29.87R                  

....South Central Kansas....
  
CITY           SKY/WX    TMP DP  RH WIND       PRES   REMARKS
HUTCHINSON     MOCLDY    51  35  54 NW23G40   29.72S                  
NEWTON         CLOUDY    47  40  76 N29       29.68R                  
KINGMAN        CLEAR     46  34  61 NW23G35   29.75R                  
WICHITA (ICT)  CLOUDY    50  38  63 NW29G38   29.68R                  
JABARA ARPT    CLOUDY    49  39  68 NW23G39   29.67R                  
BEECH ARPT     CLOUDY    49  38  66 NW17G30   29.67R                  
MCCONNELL AFB  CLOUDY    49  38  65 N26G33    29.66R                  
BENTON         FAIR      48  40  72 N21G36    29.66R                  
EL DORADO      FAIR      52  43  71 N24G33    29.63S                  
AUGUSTA        CLOUDY    48  37  66 NW21G33   29.66R                  
WELLINGTON     NOT AVBL                                               
WINFIELD       CLOUDY    51  42  71 NW22G43   29.66R                  
 
....Southeast Kansas....
  
CITY           SKY/WX    TMP DP  RH WIND       PRES   REMARKS
EUREKA         LGT RAIN  49  45  85 NW35G44   29.59R                  
IOLA           CLOUDY    49  49  97 NW22G31   29.49R                  
CHANUTE        LGT RAIN  52  49  89 NW22G37   29.49R                  
PARSONS        RAIN      51  49  92 NW26G38   29.50R                  
COFFEYVILLE    LGT RAIN  51  48  89 NW24G39   29.49R                  
INDEPENDENCE   LGT RAIN  50  48  93 NW29G37   29.53R                  
FORT SCOTT     RAIN      50  50 100 N10G16    29.44R                  
PITTSBURG      RAIN      50  49  97 NW9       29.42R                  

....Western Kansas....
  
CITY           SKY/WX    TMP DP  RH WIND       PRES   REMARKS
GOODLAND       CLEAR     43  23  45 NW25G37   30.06R WCI  33          
HILL CITY      CLEAR     47  29  49 NW18G32   29.92R                  
LIBERAL        CLEAR     47  28  47 NW23      30.01R                  
GARDEN CITY    CLEAR     48  24  39 N31G45    29.97R                  
DODGE CITY     CLEAR     47  29  49 NW25G43   29.91R                  
PRATT          CLEAR     48  31  52 NW25G33   29.81R                  
MEDICINE LODGE   N/A     50  33  52 N25G37    29.76S                  

....Northeast Kansas....
  
CITY           SKY/WX    TMP DP  RH WIND       PRES   REMARKS
CONCORDIA      MOCLDY    47  38  71 NW18G28   29.76R                  
TOPEKA         LGT RAIN  51  47  86 NW26G41   29.54R                  
MANHATTAN      CLOUDY    51  44  77 N13G25    29.67R                  
LAWRENCE       RAIN      51  50  96 N21G31    29.50S FOG              
OLATHE         RAIN      49  47  93 N10       29.47R FOG              
EMPORIA        LGT RAIN  50  45  83 NW29G46   29.58R                  

....Oklahoma....
  
CITY           SKY/WX    TMP DP  RH WIND       PRES   REMARKS
GAGE           CLEAR     52  29  41 N23G35    29.90S                  
PONCA CITY     MOCLDY    52  40  63 NW18G28   29.66R                  
BARTLESVILLE   CLOUDY    52  47  83 NW8       29.55R                  
TULSA          LGT RAIN  52  47  83 NW25G40   29.53R                  
OKLAHOMA CITY  PTCLDY    52  33  48 NW28G40   29.71R                  

Note: "fair" indicates few or no clouds below 12,000 feet with no
significant weather and/or obstructions to visibility.